Wooster, OH

4:05 PM EDT on March 26, 2017 (GMT -0400)
Wayne County

Weather History for KBJJ - June, 2013

Change the Weather History Date:

Wednesday, June 5, 2013

  Actual Average Record
Temperature  
Mean Temperature 63 °F -  
Max Temperature 78 °F 72 °F 88 °F (2005)
Min Temperature 48 °F 52 °F 44 °F (1998)
Degree Days  
Heating Degree Days 2    
Growing Degree Days 13 (Base 50)    
Moisture  
Dew Point 47 °F    
Average Humidity 56    
Maximum Humidity 83    
Minimum Humidity 33    
Precipitation  
Precipitation 0.00 in - - ()
Sea Level Pressure  
Sea Level Pressure 30.06 in    
Wind  
Wind Speed 5 mph (ENE)    
Max Wind Speed 15 mph    
Max Gust Speed -    
Visibility 10 miles    
Events      
Averages and records for this station are not official NWS values.
T = Trace of Precipitation, MM = Missing Value Source: NWS Daily Summary

Daily Weather History Graph

Daily Weather History Graph

Search for Another Location

Airport or City:

Trip Planner

Search our weather history database for the weather conditions in past years. The results will help you decide how hot, cold, wet, or windy it might be!

Date:

Astronomy

Jun. 05, 2013 Rise Set
Actual Time 5:56 AM EDT 8:55 PM EDT
Civil Twilight 5:23 AM EDT 9:29 PM EDT
Nautical Twilight 4:41 AM EDT 10:11 PM EDT
Astronomical Twilight 3:52 AM EDT 11:00 PM EDT
Moon 4:00 AM EDT (6/5) 6:20 PM EDT (6/5)
Length of Visible Light 16h 05m
Length of Day
14h 59m
Waning Crescent, 8% of the Moon is Illuminated
Jun 5
Waning Crescent
Jun 8
New
Jun 16
First Quarter
Jun 23
Full
Jun 30
Last Quarter

Hourly Weather History & Observations

Time (EDT) Temp. Dew Point Humidity Pressure Visibility Wind Dir Wind Speed Gust Speed Precip Events Conditions
12:56 AM 52.0 °F 42.1 °F 69% 30.17 in 10.0 mi NE 3.5 mph - N/A   Clear
1:56 AM 51.1 °F 43.0 °F 74% 30.16 in 10.0 mi Calm Calm - N/A   Clear
2:56 AM 51.1 °F 43.0 °F 74% 30.15 in 10.0 mi ENE 3.5 mph - N/A   Clear
3:56 AM 51.1 °F 43.0 °F 74% 30.14 in 10.0 mi Calm Calm - N/A   Clear
4:56 AM 48.9 °F 44.1 °F 83% 30.14 in 10.0 mi NE 3.5 mph - N/A   Clear
5:56 AM 50.0 °F 43.0 °F 77% 30.14 in 10.0 mi East 4.6 mph - N/A   Clear
6:56 AM 51.1 °F 45.0 °F 80% 30.14 in 10.0 mi ENE 6.9 mph - N/A   Clear
7:56 AM 55.0 °F 45.0 °F 69% 30.14 in 10.0 mi East 8.1 mph - N/A   Clear
8:56 AM 60.1 °F 46.0 °F 60% 30.13 in 10.0 mi ESE 5.8 mph - N/A   Clear
9:56 AM 64.9 °F 46.9 °F 52% 30.13 in 10.0 mi ESE 8.1 mph - N/A   Clear
10:56 AM 69.1 °F 48.9 °F 49% 30.11 in 10.0 mi Variable 4.6 mph - N/A   Clear
11:56 AM 72.0 °F 48.9 °F 44% 30.07 in 10.0 mi NE 4.6 mph - N/A   Clear
12:56 PM 73.9 °F 48.9 °F 41% 30.06 in 10.0 mi NE 4.6 mph - N/A   Clear
1:56 PM 75.0 °F 46.9 °F 37% 30.04 in 10.0 mi NE 4.6 mph - N/A   Clear
2:56 PM 77.0 °F 48.0 °F 36% 30.04 in 10.0 mi NE 6.9 mph - N/A   Clear
3:56 PM 77.0 °F 46.0 °F 33% 30.01 in 10.0 mi ENE 9.2 mph - N/A   Clear
4:56 PM 78.1 °F 46.9 °F 33% 29.99 in 10.0 mi East 11.5 mph - N/A   Clear
5:56 PM 77.0 °F 48.9 °F 37% 29.96 in 10.0 mi ESE 8.1 mph - N/A   Clear
6:56 PM 77.0 °F 48.9 °F 37% 29.95 in 10.0 mi Calm Calm - N/A   Clear
7:56 PM 70.0 °F 52.0 °F 53% 29.94 in 10.0 mi North 15.0 mph - N/A   Mostly Cloudy
8:56 PM 66.0 °F 51.1 °F 59% 29.96 in 10.0 mi North 6.9 mph - N/A   Scattered Clouds
9:56 PM 64.0 °F 51.1 °F 63% 29.95 in 10.0 mi North 6.9 mph - N/A   Clear
10:56 PM 64.0 °F 50.0 °F 60% 29.94 in 10.0 mi North 6.9 mph - N/A   Clear
11:56 PM 62.1 °F 48.0 °F 60% 29.94 in 10.0 mi ENE 5.8 mph - N/A   Clear